TimeEST,TemperatureF,Dew PointF,Humidity,Sea Level PressureIn,VisibilityMPH,Wind Direction,Wind SpeedMPH,Gust SpeedMPH,PrecipitationIn,Events,Conditions,WindDirDegrees,DateUTC
12:56 AM,39.9,37.9,93,30.26,9.0,Calm,Calm,-,N/A,,Partly Cloudy,0,2012-12-04 05:56:00
1:56 AM,42.1,39.0,89,30.27,10.0,Calm,Calm,-,N/A,,Partly Cloudy,0,2012-12-04 06:56:00
2:56 AM,41.0,37.9,89,30.26,10.0,Calm,Calm,-,N/A,,Scattered Clouds,0,2012-12-04 07:56:00
3:56 AM,42.1,37.9,85,30.26,10.0,ESE,3.5,-,N/A,,Mostly Cloudy,110,2012-12-04 08:56:00
4:56 AM,44.1,41.0,89,30.27,10.0,South,3.5,-,N/A,,Overcast,170,2012-12-04 09:56:00
5:56 AM,45.0,43.0,93,30.27,8.0,Calm,Calm,-,N/A,,Overcast,0,2012-12-04 10:56:00
6:44 AM,46.4,42.8,87,30.26,7.0,Calm,Calm,-,N/A,,Overcast,0,2012-12-04 11:44:00
6:56 AM,46.0,44.1,93,30.27,5.0,Calm,Calm,-,N/A,,Overcast,0,2012-12-04 11:56:00
6:58 AM,46.4,44.6,93,30.27,2.5,Calm,Calm,-,N/A,,Overcast,0,2012-12-04 11:58:00
7:42 AM,48.2,44.6,87,30.27,1.5,East,4.6,-,0.01,Rain,Light Rain,100,2012-12-04 12:42:00
7:56 AM,48.0,46.0,93,30.27,1.5,ESE,4.6,-,0.02,Rain,Light Rain,120,2012-12-04 12:56:00
8:54 AM,51.8,50.0,94,30.27,0.8,SE,4.6,-,0.02,Rain,Light Rain,140,2012-12-04 13:54:00
8:56 AM,52.0,50.0,93,30.28,0.8,SE,5.8,-,0.02,Rain,Light Rain,140,2012-12-04 13:56:00
9:32 AM,53.6,51.8,94,30.27,1.5,SSE,5.8,-,0.04,Rain,Light Rain,150,2012-12-04 14:32:00
9:56 AM,54.0,52.0,93,30.28,1.5,SSE,6.9,-,0.04,Rain,Light Rain,160,2012-12-04 14:56:00
10:51 AM,55.4,53.6,94,30.26,2.0,South,6.9,-,0.00,Rain,Light Rain,170,2012-12-04 15:51:00
10:56 AM,55.0,53.1,93,30.26,2.0,South,8.1,-,0.00,Rain,Light Rain,170,2012-12-04 15:56:00
11:16 AM,55.4,53.6,94,30.24,3.0,South,9.2,-,0.00,Rain,Light Rain,180,2012-12-04 16:16:00
11:56 AM,57.0,54.0,89,30.23,4.0,SSW,9.2,-,0.00,,Overcast,200,2012-12-04 16:56:00
12:38 PM,57.2,55.4,94,30.20,4.0,South,12.7,-,N/A,,Overcast,180,2012-12-04 17:38:00
12:56 PM,57.0,54.0,89,30.20,4.0,South,11.5,-,N/A,,Overcast,190,2012-12-04 17:56:00
1:56 PM,57.0,54.0,89,30.18,4.0,SSW,10.4,-,N/A,,Overcast,200,2012-12-04 18:56:00
2:37 PM,55.4,53.6,94,30.17,1.0,South,11.5,17.3,N/A,,Overcast,190,2012-12-04 19:37:00
2:51 PM,55.4,53.6,94,30.17,0.2,South,9.2,-,N/A,Fog,Fog,190,2012-12-04 19:51:00
2:56 PM,55.9,54.0,93,30.17,0.2,South,10.4,-,N/A,Fog,Fog,190,2012-12-04 19:56:00
3:56 PM,55.0,54.0,96,30.16,1.0,South,8.1,-,N/A,,Overcast,180,2012-12-04 20:56:00
4:56 PM,55.0,53.1,93,30.14,3.0,South,6.9,-,N/A,,Mostly Cloudy,170,2012-12-04 21:56:00
5:56 PM,54.0,53.1,97,30.13,3.0,South,5.8,-,N/A,,Mostly Cloudy,180,2012-12-04 22:56:00
6:56 PM,55.0,53.1,93,30.12,3.0,South,8.1,-,N/A,,Overcast,190,2012-12-04 23:56:00
7:56 PM,55.0,53.1,93,30.09,3.0,SSW,10.4,-,N/A,,Overcast,200,2012-12-05 00:56:00
8:56 PM,55.9,53.1,90,30.07,3.0,SSW,12.7,-,N/A,,Mostly Cloudy,200,2012-12-05 01:56:00
9:56 PM,55.0,52.0,89,30.05,8.0,SSW,11.5,-,N/A,,Scattered Clouds,210,2012-12-05 02:56:00
10:56 PM,54.0,51.1,90,30.03,8.0,SSW,10.4,-,N/A,,Scattered Clouds,210,2012-12-05 03:56:00
11:56 PM,53.1,51.1,93,29.99,9.0,South,10.4,-,N/A,,Scattered Clouds,190,2012-12-05 04:56:00